[[{"header":{"parameterUnit":"m.s-1","parameterCategory":1,"la1":30.2991,"la2":30.254,"lo1":-89.0895,"lo2":-89.0444,"dy":0.0017,"dx":0.0017,"nx":28,"ny":28,"refTime":"2024-11-26T03:00:00:Z","depth":0,"parameterNumber":2,"parameterNumberName":"U-component_of_WINDS"},"data":[0,0,0,0,0,0,0,0,0,0,0,0,0,0,0,0,0,0,0,0,0,0,0,0,0,0,0,0,0,0,0,0,0,0,0,0,0,0,0,0,0,0,0,0,0,0,0,0,0,0,0,0,0,0,0,0,0,0,-1.0124,-1.0125,0,-1.0207,-1.0208,-1.0208,-1.0245,-1.0245,-1.0245,-1.0245,-1.0331,-1.0334,-1.0336,0,0,0,0,0,0,0,0,0,0,0,0,0,-1.0001,-1.0003,-1.0124,-1.0125,-1.0126,-1.0206,-1.0208,-1.0209,-1.0245,-1.0245,-1.0245,-1.0245,-1.0331,-1.0333,-1.0336,0,0,0,0,0,0,0,0,0,0,0,0,0,-1.0066,-1.0003,-1.0124,-1.0154,-1.0157,-1.0206,-1.0208,-1.0209,-1.0245,-1.0245,-1.0245,-1.0245,-1.033,-1.0333,-1.0337,-1.0362,0,0,-1.0348,-1.0349,0,0,0,0,0,0,0,0,-1.0062,-1.007,-1.0148,-1.0152,-1.0156,-1.0215,-1.0196,-1.026,-1.0245,-1.0212,-1.0245,-1.0245,-1.0293,-1.03,-1.0316,-1.0366,-1.037,-1.0348,-1.035,-1.0352,-1.0353,0,0,0,0,0,0,0,-1.0058,-1.0067,-1.0157,-1.015,-1.0154,-1.0164,-1.0173,-1.0208,-1.0253,-1.0215,-1.0218,-1.0227,-1.0295,-1.0312,-1.0318,-1.0371,-1.0348,-1.0351,-1.0353,-1.0355,-1.0448,-1.0448,0,0,0,0,0,0,-1.0048,-1.0063,-1.0154,-1.0159,-1.0108,-1.0167,-1.0177,-1.0197,-1.0252,-1.0261,-1.0227,-1.0228,-1.0306,-1.0314,-1.0321,-1.0355,-1.0352,-1.0355,-1.0357,-1.0448,-1.0448,-1.0449,0,0,0,0,0,0,-1.0045,-1.0056,-1.0151,-1.0112,-1.0125,-1.0169,-1.0191,-1.0198,-1.0215,-1.0261,-1.027,-1.0236,-1.0306,-1.0316,-1.0352,-1.0359,-1.0357,-1.036,-1.0447,-1.0448,-1.0448,-1.0423,0,0,0,0,0,0,-1.0041,-1.0054,-1.0064,-1.0112,-1.0127,-1.0179,-1.0191,-1.02,-1.0221,-1.0224,-1.0272,-1.028,-1.0307,-1.0346,-1.0355,-1.0364,-1.0363,-1.0447,-1.0448,-1.0448,-1.0423,-1.0422,-1.0422,0,0,0,0,0,-1.0037,-1.0053,-1.0064,-1.0075,-1.0139,-1.0179,-1.0188,-1.0218,-1.0221,-1.0232,-1.0262,-1.0278,-1.0356,-1.035,-1.036,-1.0369,-1.0447,-1.0447,-1.0448,-1.0424,-1.0423,-1.0422,0,0,0,0,0,0,-1.0005,-1.006,-1.0072,-1.0105,-1.0137,-1.0186,-1.0199,-1.0216,-1.0248,-1.0249,-1.0286,-1.0297,-1.033,-1.0353,-1.0345,-1.0398,-1.0403,-1.0406,-1.0381,-1.038,-1.0379,-1.0373,-1.0366,0,0,0,0,0,-1.0002,-1.0029,-1.0076,-1.01,-1.0116,-1.0155,-1.0173,-1.0194,-1.0229,-1.0243,-1.0275,-1.031,-1.0342,-1.0363,-1.0395,-1.0427,-1.0439,-1.0439,-1.0438,-1.0437,-1.0439,-1.0459,-1.046,-1.0451,-1.0451,-1.0451,0,0,-0.9995,-1.0029,-1.0044,-1.0095,-1.0122,-1.0151,-1.0166,-1.0195,-1.0217,-1.0248,-1.0283,-1.0309,-1.0349,-1.0383,-1.04,-1.0404,-1.0444,-1.0438,-1.0437,-1.044,-1.046,-1.0461,-1.0462,-1.0451,-1.0451,-1.0451,0,0,-0.9998,-1.0026,-1.005,-1.0077,-1.0118,-1.0144,-1.015,-1.0196,-1.0214,-1.025,-1.0274,-1.0301,-1.0356,-1.0384,-1.0406,-1.042,-1.0437,-1.043,-1.0426,-1.0445,-1.0445,-1.0446,-1.0452,-1.0454,-1.0432,-1.0432,-1.0432,0,-0.9985,-1.0028,-1.006,-1.0088,-1.011,-1.0139,-1.0164,-1.0189,-1.0239,-1.0254,-1.0258,-1.0328,-1.0357,-1.0399,-1.0402,-1.0419,-1.0427,-1.0424,-1.0443,-1.0444,-1.0445,-1.0451,-1.0453,-1.0431,-1.0431,-1.0431,-1.0431,0,-1.001,-1.004,-1.0054,-1.0101,-1.0125,-1.0151,-1.0188,-1.0208,-1.0227,-1.0253,-1.0291,-1.0327,-1.0368,-1.0379,-1.0398,-1.0424,-1.0425,-1.0435,-1.0442,-1.0444,-1.0451,-1.0453,-1.0429,-1.043,-1.043,-1.043,0,0,-0.9995,-1.006,-1.0064,-1.0087,-1.0135,-1.0159,-1.0187,-1.0226,-1.0244,-1.0277,-1.0303,-1.0349,-1.0359,-1.0383,-1.0405,-1.0422,-1.0433,-1.043,-1.0432,-1.043,-1.0465,-1.0457,-1.0459,-1.0444,-1.0445,-1.0445,-1.0461,0,-1.0005,-1.0055,-1.0085,-1.0124,-1.0153,-1.0181,-1.0206,-1.0239,-1.0264,-1.0293,-1.0321,-1.0353,-1.0364,-1.0379,-1.0397,-1.0427,-1.044,-1.0427,-1.0469,-1.047,-1.0457,-1.0462,-1.0454,-1.0467,-1.0464,-1.0464,-1.0465,0,-1.0022,-1.0055,-1.0097,-1.0143,-1.0156,-1.0177,-1.0217,-1.0243,-1.0281,-1.0299,-1.0326,-1.0349,-1.0381,-1.0385,-1.043,-1.0421,-1.044,-1.0458,-1.0459,-1.0464,-1.0467,-1.0468,-1.0472,-1.0474,-1.0469,-1.0469,-1.0468,0,-1.0007,-1.0062,-1.0094,-1.0113,-1.0167,-1.0181,-1.0205,-1.0243,-1.0265,-1.03,-1.0315,-1.0353,-1.0373,-1.0403,-1.0435,-1.0435,-1.0478,-1.0484,-1.0494,-1.0493,-1.0501,-1.05,-1.0509,-1.0513,-1.0513,-1.0513,-1.0513,0,-1.0015,-1.004,-1.0089,-1.0108,-1.0137,-1.0172,-1.02,-1.0226,-1.0259,-1.0286,-1.0313,-1.0337,-1.0379,-1.0409,-1.0435,-1.0469,-1.0478,-1.0493,-1.05,-1.0491,-1.0489,-1.0504,-1.0504,-1.0514,-1.0514,-1.0514,-1.0514,0,-1.0003,-1.0037,-1.0074,-1.0122,-1.0135,-1.0154,-1.0196,-1.0217,-1.0244,-1.0277,-1.0287,-1.033,-1.0366,-1.0402,-1.0451,-1.0468,-1.0502,-1.0511,-1.0489,-1.0493,-1.05,-1.0499,-1.0519,-1.0524,-1.0525,-1.0524,-1.0524,0,-1.0006,-1.0025,-1.0076,-1.0095,-1.0118,-1.0148,-1.0171,-1.0206,-1.0229,-1.0275,-1.0291,-1.0329,-1.0362,-1.0419,-1.0455,-1.0493,-1.0503,-1.0507,-1.0509,-1.0499,-1.0504,-1.0502,-1.0504,-1.0506,-1.0506,-1.0506,-1.0506,0,-1.0007,-1.0023,-1.0054,-1.0091,-1.0118,-1.0149,-1.0181,-1.0196,-1.0238,-1.0262,-1.03,-1.0325,-1.0375,-1.0413,-1.0456,-1.0481,-1.0501,-1.0505,-1.051,-1.05,-1.0487,-1.0495,-1.0487,-1.0504,-1.0505,-1.0505,-1.0505,-1.0505,-1.0003,-1.0022,-1.006,-1.0095,-1.0123,-1.0152,-1.0175,-1.0205,-1.0236,-1.0279,-1.0299,-1.0337,-1.0376,-1.0435,-1.046,-1.0491,-1.0496,-1.0502,-1.0504,-1.0505,-1.0503,-1.0482,-1.0499,-1.0499,-1.0499,-1.0499,-1.0499,0,-1.0006,-1.0032,-1.0063,-1.0108,-1.0135,-1.0151,-1.0188,-1.021,-1.0242,-1.0277,-1.0309,-1.0352,-1.039,-1.0429,-1.0469,-1.0486,-1.0496,-1.0496,-1.0495,-1.05,-1.0496,-1.0488,-1.0487,-1.0487,-1.0487,-1.0487,-1.0487,-1.0487,-1.0011,-1.0044,-1.0064,-1.0112,-1.0139,-1.0176,-1.0196,-1.0224,-1.0252,-1.0299,-1.033,-1.0355,-1.0392,-1.0435,-1.0471,-1.0481,-1.0495,-1.0492,-1.0505,-1.05,-1.0501,-1.0501,-1.0494,-1.0494,-1.0494,-1.0507,-1.0507,-1.0507]},{"header":{"parameterUnit":"m.s-1","parameterCategory":1,"la1":30.2991,"la2":30.254,"lo1":-89.0895,"lo2":-89.0444,"dy":0.0017,"dx":0.0017,"nx":28,"ny":28,"refTime":"2024-11-26T03:00:00:Z","depth":0,"parameterNumber":3,"parameterNumberName":"V-component_of_WINDS"},"data":[0,0,0,0,0,0,0,0,0,0,0,0,0,0,0,0,0,0,0,0,0,0,0,0,0,0,0,0,0,0,0,0,0,0,0,0,0,0,0,0,0,0,0,0,0,0,0,0,0,0,0,0,0,0,0,0,0,0,-0.6381,-0.6382,0,-0.644,-0.6441,-0.6441,-0.647,-0.647,-0.647,-0.647,-0.6532,-0.6533,-0.6535,0,0,0,0,0,0,0,0,0,0,0,0,0,-0.6296,-0.6297,-0.6381,-0.6382,-0.6383,-0.644,-0.6441,-0.6441,-0.647,-0.647,-0.647,-0.647,-0.6531,-0.6533,-0.6535,0,0,0,0,0,0,0,0,0,0,0,0,0,-0.6342,-0.6298,-0.6381,-0.6404,-0.6406,-0.644,-0.6441,-0.6442,-0.647,-0.647,-0.647,-0.647,-0.653,-0.6533,-0.6535,-0.6551,0,0,-0.6543,-0.6544,0,0,0,0,0,0,0,0,-0.6339,-0.6345,-0.64,-0.6402,-0.6405,-0.6447,-0.6433,-0.6478,-0.647,-0.6446,-0.647,-0.647,-0.6504,-0.6508,-0.652,-0.6554,-0.6557,-0.6543,-0.6545,-0.6546,-0.6546,0,0,0,0,0,0,0,-0.6336,-0.6342,-0.6405,-0.64,-0.6404,-0.6412,-0.6418,-0.6442,-0.6474,-0.6448,-0.645,-0.6456,-0.6505,-0.6517,-0.6521,-0.6558,-0.6543,-0.6545,-0.6547,-0.6548,-0.6609,-0.6609,0,0,0,0,0,0,-0.6329,-0.634,-0.6403,-0.6406,-0.6371,-0.6413,-0.642,-0.6434,-0.6474,-0.648,-0.6456,-0.6458,-0.6513,-0.6518,-0.6523,-0.6545,-0.6546,-0.6548,-0.6549,-0.6609,-0.6609,-0.6609,0,0,0,0,0,0,-0.6327,-0.6334,-0.64,-0.6374,-0.6383,-0.6415,-0.643,-0.6435,-0.6447,-0.648,-0.6487,-0.6462,-0.6513,-0.652,-0.6544,-0.6548,-0.6549,-0.6551,-0.6609,-0.6609,-0.6609,-0.6589,0,0,0,0,0,0,-0.6324,-0.6333,-0.6339,-0.6373,-0.6384,-0.6419,-0.643,-0.6436,-0.6451,-0.6453,-0.6488,-0.6494,-0.6513,-0.654,-0.6547,-0.6551,-0.6553,-0.6609,-0.6609,-0.6609,-0.6589,-0.6588,-0.6587,0,0,0,0,0,-0.6321,-0.6331,-0.6339,-0.6347,-0.6392,-0.6419,-0.6426,-0.6448,-0.6451,-0.6458,-0.6479,-0.6492,-0.6546,-0.6543,-0.655,-0.6555,-0.6609,-0.6609,-0.6609,-0.659,-0.6589,-0.6587,0,0,0,0,0,0,-0.6297,-0.6336,-0.6345,-0.6367,-0.6389,-0.6424,-0.6433,-0.6446,-0.6468,-0.6469,-0.6497,-0.6504,-0.6526,-0.6543,-0.6538,-0.6574,-0.6579,-0.6581,-0.6561,-0.6561,-0.656,-0.6555,-0.6555,0,0,0,0,0,-0.6294,-0.6312,-0.6346,-0.6362,-0.6372,-0.6401,-0.6414,-0.6429,-0.6454,-0.6464,-0.6487,-0.6511,-0.6534,-0.6548,-0.6571,-0.6592,-0.66,-0.6599,-0.6598,-0.6598,-0.6599,-0.6612,-0.6613,-0.6611,-0.6611,-0.661,0,0,-0.6288,-0.6312,-0.6322,-0.6357,-0.6377,-0.6396,-0.6409,-0.6428,-0.6443,-0.6467,-0.6491,-0.6509,-0.6538,-0.6561,-0.6572,-0.6576,-0.6601,-0.6598,-0.6597,-0.6599,-0.6613,-0.6613,-0.6613,-0.6611,-0.6611,-0.6611,0,0,-0.6287,-0.6307,-0.6322,-0.6342,-0.6371,-0.639,-0.6393,-0.6426,-0.6439,-0.6464,-0.6482,-0.65,-0.6538,-0.6558,-0.6574,-0.6581,-0.6594,-0.6588,-0.6583,-0.6596,-0.6596,-0.6596,-0.6599,-0.66,-0.6589,-0.6589,-0.6589,0,-0.6277,-0.6306,-0.6329,-0.6348,-0.6363,-0.6385,-0.6401,-0.6419,-0.6454,-0.6465,-0.6468,-0.6517,-0.6538,-0.6566,-0.6568,-0.6579,-0.6585,-0.6584,-0.6594,-0.6594,-0.6595,-0.6599,-0.66,-0.6588,-0.6588,-0.6588,-0.6588,0,-0.6292,-0.6312,-0.6321,-0.6354,-0.6371,-0.6388,-0.6414,-0.6428,-0.6442,-0.6461,-0.6486,-0.6512,-0.6541,-0.6548,-0.6562,-0.6579,-0.658,-0.6588,-0.6594,-0.6594,-0.6598,-0.6599,-0.6587,-0.6587,-0.6587,-0.6587,0,0,-0.6277,-0.6323,-0.6326,-0.6342,-0.6376,-0.6392,-0.6411,-0.6438,-0.645,-0.6474,-0.6491,-0.6523,-0.653,-0.6548,-0.6564,-0.6575,-0.658,-0.6582,-0.6583,-0.6581,-0.6601,-0.6595,-0.6596,-0.6589,-0.6589,-0.659,-0.6599,0,-0.6282,-0.6316,-0.6338,-0.6364,-0.6383,-0.6404,-0.6421,-0.6444,-0.6462,-0.6482,-0.6502,-0.6524,-0.6532,-0.6543,-0.6555,-0.6577,-0.6585,-0.6577,-0.6606,-0.6607,-0.6599,-0.6598,-0.6592,-0.6599,-0.6601,-0.6601,-0.6601,0,-0.6292,-0.6315,-0.6342,-0.6375,-0.6384,-0.6398,-0.6425,-0.6444,-0.6471,-0.6483,-0.6502,-0.6519,-0.6541,-0.6544,-0.6575,-0.6569,-0.6583,-0.6596,-0.6596,-0.66,-0.6604,-0.6603,-0.6602,-0.6604,-0.6603,-0.6603,-0.6603,0,-0.6279,-0.6317,-0.6339,-0.6351,-0.6389,-0.6399,-0.6416,-0.6443,-0.6458,-0.6482,-0.6492,-0.6518,-0.6533,-0.6553,-0.6577,-0.6578,-0.6606,-0.6612,-0.6617,-0.6617,-0.6623,-0.6622,-0.6625,-0.663,-0.663,-0.663,-0.663,0,-0.6282,-0.6299,-0.6334,-0.6347,-0.6366,-0.6391,-0.641,-0.6428,-0.6452,-0.647,-0.649,-0.6506,-0.6536,-0.6557,-0.6575,-0.6598,-0.6605,-0.6616,-0.6621,-0.6615,-0.6613,-0.6624,-0.6624,-0.6631,-0.6631,-0.6631,-0.663,0,-0.6272,-0.6296,-0.6321,-0.6355,-0.6364,-0.6377,-0.6406,-0.642,-0.644,-0.6462,-0.6469,-0.6499,-0.6524,-0.655,-0.6584,-0.6596,-0.6619,-0.6626,-0.661,-0.6613,-0.6618,-0.6617,-0.6628,-0.6631,-0.6633,-0.6633,-0.6633,0,-0.6272,-0.6285,-0.6321,-0.6334,-0.635,-0.6371,-0.6387,-0.6412,-0.6428,-0.6459,-0.647,-0.6497,-0.6519,-0.6559,-0.6584,-0.6611,-0.6618,-0.662,-0.6622,-0.6616,-0.6619,-0.6618,-0.662,-0.6619,-0.6619,-0.6619,-0.6619,0,-0.6271,-0.6282,-0.6304,-0.633,-0.6348,-0.637,-0.6392,-0.6402,-0.6432,-0.6448,-0.6474,-0.6492,-0.6526,-0.6553,-0.6582,-0.66,-0.6615,-0.6618,-0.6621,-0.6615,-0.6605,-0.6611,-0.6608,-0.6618,-0.6618,-0.6618,-0.6618,-0.6618,-0.6266,-0.6279,-0.6306,-0.633,-0.635,-0.637,-0.6385,-0.6406,-0.6428,-0.6458,-0.6472,-0.6498,-0.6525,-0.6566,-0.6584,-0.6605,-0.6609,-0.6613,-0.6614,-0.6615,-0.6614,-0.6601,-0.6611,-0.6611,-0.6611,-0.6611,-0.6611,0,-0.6267,-0.6285,-0.6307,-0.6337,-0.6356,-0.6368,-0.6393,-0.6409,-0.6431,-0.6455,-0.6477,-0.6507,-0.6533,-0.656,-0.6588,-0.66,-0.6607,-0.6606,-0.6606,-0.661,-0.6609,-0.6603,-0.66,-0.66,-0.66,-0.66,-0.66,-0.66,-0.6269,-0.6292,-0.6306,-0.6339,-0.6358,-0.6383,-0.6397,-0.6416,-0.6436,-0.6468,-0.6489,-0.6507,-0.6533,-0.6563,-0.6587,-0.6595,-0.6605,-0.6602,-0.6611,-0.6609,-0.661,-0.6611,-0.6606,-0.6603,-0.6603,-0.6611,-0.6611,-0.6611]}]]